Maxton, NC

10:17 PM EST on December 03, 2016 (GMT -0500)
Laurinburg-Maxton

Weather History for KMEB - February, 2014

Change the Weather History Date:

Thursday, February 20, 2014

  Actual Average (KLBT) Record (KLBT)
Temperature  
Mean Temperature 66 °F 48 °F  
Max Temperature 81 °F 59 °F 80 °F (2014)
Min Temperature 52 °F 36 °F 13 °F (2015)
Degree Days  
Heating Degree Days 0 17  
Month to date heating degree days 382  
Since 1 July heating degree days 2101  
Cooling Degree Days 2 0  
Month to date cooling degree days 0  
Year to date cooling degree days 1  
Growing Degree Days 16 (Base 50)    
Moisture  
Dew Point 55 °F    
Average Humidity 75    
Maximum Humidity 100    
Minimum Humidity 35    
Precipitation  
Precipitation 0.00 in 0.12 in 0.05 in (2002)
Month to date precipitation 2.00  
Year to date precipitation 4.97  
Sea Level Pressure  
Sea Level Pressure 30.10 in    
Wind  
Wind Speed 5 mph (South)    
Max Wind Speed 17 mph    
Max Gust Speed 25 mph    
Visibility 10 miles    
Events      
T = Trace of Precipitation, MM = Missing Value Source: NWS Daily Summary

Daily Weather History Graph

Daily Weather History Graph

Search for Another Location

Airport or City:

Trip Planner

Search our weather history database for the weather conditions in past years. The results will help you decide how hot, cold, wet, or windy it might be!

Date:

Astronomy

Feb. 20, 2014 Rise Set
Actual Time 6:57 AM EST 6:05 PM EST
Civil Twilight 6:32 AM EST 6:30 PM EST
Nautical Twilight 6:02 AM EST 7:00 PM EST
Astronomical Twilight 5:33 AM EST 7:29 PM EST
Moon 11:42 PM EST (2/20) 9:53 AM EST (2/20)
Length of Visible Light 11h 58m
Length of Day
11h 07m
Waning Gibbous, 71% of the Moon is Illuminated
Feb 20
Waning Gibbous
Feb 22
Last Quarter
Mar 1
New
Mar 8
First Quarter
Mar 16
Full

Hourly Weather History & Observations

Time (EST) Temp. Dew Point Humidity Pressure Visibility Wind Dir Wind Speed Gust Speed Precip Events Conditions
12:52 AM 55.9 °F 53.1 °F 90% 30.09 in 10.0 mi South 3.5 mph - N/A   Clear
1:52 AM 54.0 °F 52.0 °F 93% 30.11 in 10.0 mi Calm Calm - N/A   Clear
2:52 AM 54.0 °F 52.0 °F 93% 30.11 in 8.0 mi Calm Calm - N/A   Clear
3:52 AM 54.0 °F 52.0 °F 93% 30.12 in 9.0 mi Calm Calm - N/A   Clear
4:52 AM 54.0 °F 52.0 °F 93% 30.13 in 10.0 mi Calm Calm - N/A   Scattered Clouds
5:52 AM 53.1 °F 52.0 °F 96% 30.14 in 8.0 mi Calm Calm - N/A   Partly Cloudy
6:52 AM 53.1 °F 51.1 °F 93% 30.15 in 10.0 mi ESE 3.5 mph - N/A   Clear
7:52 AM 52.0 °F 52.0 °F 100% 30.16 in 5.0 mi East 3.5 mph - N/A   Scattered Clouds
8:52 AM 57.0 °F 53.1 °F 87% 30.19 in 10.0 mi ENE 4.6 mph - N/A   Clear
9:52 AM 61.0 °F 52.0 °F 72% 30.17 in 10.0 mi ESE 5.8 mph - N/A   Clear
10:52 AM 64.0 °F 53.1 °F 67% 30.17 in 10.0 mi ESE 6.9 mph - N/A   Clear
11:52 AM 68.0 °F 55.0 °F 63% 30.14 in 10.0 mi SSE 6.9 mph - N/A   Clear
12:52 PM 73.0 °F 57.0 °F 57% 30.11 in 10.0 mi South 6.9 mph - N/A   Clear
1:52 PM 77.0 °F 55.9 °F 48% 30.06 in 10.0 mi SSW 10.4 mph - N/A   Clear
2:52 PM 81.0 °F 51.1 °F 35% 30.05 in 10.0 mi SW 17.3 mph 25.3 mph N/A   Clear
3:52 PM 79.0 °F 52.0 °F 39% 30.04 in 10.0 mi SSW 15.0 mph 25.3 mph N/A   Partly Cloudy
4:52 PM 77.0 °F 54.0 °F 45% 30.04 in 10.0 mi SSW 12.7 mph 23.0 mph N/A   Partly Cloudy
5:52 PM 73.0 °F 55.0 °F 53% 30.05 in 10.0 mi SSW 9.2 mph - N/A   Clear
6:52 PM 66.9 °F 55.9 °F 68% 30.06 in 10.0 mi South 8.1 mph - N/A   Clear
7:52 PM 68.0 °F 55.0 °F 63% 30.06 in 10.0 mi SSW 13.8 mph - N/A   Clear
8:52 PM 68.0 °F 59.0 °F 73% 30.06 in 10.0 mi South 16.1 mph 24.2 mph N/A   Clear
9:52 PM 66.0 °F 60.1 °F 81% 30.06 in 10.0 mi SSW 11.5 mph - N/A   Partly Cloudy
10:52 PM 64.9 °F 60.1 °F 84% 30.06 in 10.0 mi South 9.2 mph - N/A   Mostly Cloudy
11:25 PM 64.0 °F 60.1 °F 87% 30.07 in 10.0 mi South 8.1 mph - N/A   Mostly Cloudy
11:52 PM 63.0 °F 61.0 °F 93% 30.04 in 10.0 mi South 10.4 mph - N/A   Scattered Clouds